GW6157 Weather Reports


time (UTC)temp
C
wind
direction
speed
KPH
gust
KPH
rain 1hr
cm
rain 24hr
cm
rain mn
cm
humidity
%
barometer
mb
20260507174521 15 229 8.0 17.7 0.00 1.65 1.57 67 1001.8
20260507173031 14 221 8.0 14.5 0.00 1.65 1.57 73 1001.8
20260507171509 14 230 3.2 16.1 0.00 1.65 1.57 76 1001.9
20260507170015 13 227 3.2 14.5 0.00 1.65 1.57 80 1002.0
20260507164524 13 217 4.8 14.5 0.00 1.65 1.57 79 1002.5
20260507163022 13 284 9.7 16.1 0.00 1.65 1.57 86 1002.7
20260507161525 12 203 1.6 11.3 0.00 1.65 1.57 89 1002.9
20260507160013 12 252 3.2 8.0 0.00 1.65 1.57 94 1002.9
20260507154515 10 279 3.2 8.0 0.00 1.65 1.57 92 1003.1
20260507153020 10 246 4.8 9.7 0.00 1.65 1.57 93 1003.3
20260507151525 10 263 3.2 8.0 0.00 1.65 1.57 94 1003.8
20260507150028 9 192 1.6 6.4 0.00 1.65 1.57 94 1003.2
20260507144522 9 240 4.8 11.3 0.00 1.65 1.57 94 1004.2
20260507143020 9 257 1.6 8.0 0.00 1.65 1.57 96 1003.6
20260507141523 9 202 1.6 3.2 0.03 1.65 1.57 97 1003.3
20260507140032 9 188 3.2 8.0 0.08 1.65 1.57 97 1003.9
20260507134508 8 212 3.2 9.7 0.08 1.65 1.57 97 1003.6
20260507133002 8 196 4.8 8.0 0.10 1.65 1.57 97 1003.4
20260507131504 8 244 1.6 8.0 0.10 1.63 1.55 97 1003.3
20260507124508 8 209 6.4 9.7 0.05 1.57 1.47 96 1004.1
20260507123000 8 213 4.8 9.7 0.03 1.55 1.47 96 1003.8
20260507121518 8 212 4.8 12.9 0.00 1.52 1.45 96 1003.9
20260507120007 8 203 4.8 8.0 0.00 1.52 1.45 97 1003.6
20260507114525 8 194 4.8 9.7 0.00 1.52 1.45 96 1003.6
20260507113015 8 254 4.8 9.7 0.00 1.52 1.45 96 1003.4
20260507111503 8 217 8.0 12.9 0.00 1.52 1.45 96 1003.7
20260507110024 8 219 8.0 14.5 0.03 1.52 1.45 96 1003.8
20260507104523 8 187 4.8 12.9 0.05 1.52 1.45 96 1003.9
20260507103012 8 150 3.2 11.3 0.05 1.52 1.45 95 1003.3
20260507101517 8 184 1.6 9.7 0.08 1.52 1.45 95 1003.0
20260507100007 8 212 6.4 12.9 0.18 1.47 1.42 95 1003.3
20260507094503 8 201 3.2 9.7 0.18 1.47 1.40 95 1003.0
20260507093028 8 257 9.7 20.9 0.18 1.47 1.40 95 1003.4
20260507091535 9 128 1.6 9.7 0.18 1.45 1.37 95 1002.6
20260507090023 9 181 4.8 17.7 0.08 1.32 1.24 95 1002.6
20260507084503 9 174 6.4 17.7 0.08 1.30 1.22 94 1002.6
20260507083008 10 189 9.7 30.6 0.08 1.30 1.22 94 1002.9
20260507081507 10 225 20.9 32.2 0.08 1.27 1.19 93 1003.0
20260507080029 10 195 9.7 20.9 0.08 1.24 1.17 94 1002.7
20260507074520 11 217 17.7 30.6 0.15 1.22 1.14 94 1002.9
20260507073023 11 231 20.9 37.0 0.25 1.22 1.14 93 1003.1
20260507071505 12 174 16.1 35.4 0.30 1.19 1.12 93 1003.1
20260507070013 12 192 12.9 33.8 0.41 1.17 1.09 94 1002.9
20260507064521 12 218 8.0 30.6 0.38 1.07 0.99 94 1003.1
20260507063022 12 171 16.1 40.2 0.41 0.97 0.89 93 1003.3
20260507061527 13 150 11.3 30.6 0.38 0.89 0.81 94 1003.6
20260507060011 13 213 11.3 30.6 0.30 0.76 0.69 94 1003.8
20260507054508 13 142 11.3 30.6 0.25 0.69 0.61 94 1004.0
20260507053004 13 158 4.8 29.0 0.18 0.56 0.48 94 1004.2
20260507051524 13 115 8.0 22.5 0.15 0.51 0.43 94 1004.6
20260507050006 13 155 9.7 24.1 0.13 0.46 0.38 94 1005.0
20260507044512 13 174 6.4 20.9 0.18 0.43 0.36 94 1005.3
20260507043011 13 172 12.9 45.1 0.28 0.38 0.30 93 1005.8
20260507041503 13 159 14.5 35.4 0.28 0.36 0.28 93 1006.2
20260507040011 13 146 6.4 22.5 0.25 0.33 0.25 93 1006.4
20260507034509 13 149 8.0 24.1 0.20 0.25 0.18 92 1007.1
20260507033016 13 148 11.3 30.6 0.05 0.10 0.03 91 1007.2
20260507031504 13 130 11.3 38.6 0.03 0.08 0.00 90 1007.6
20260507030008 13 171 9.7 24.1 0.03 0.08 0.00 91 1007.9
20260507023011 12 182 8.0 25.7 0.00 0.05 0.05 91 1008.4
20260507021517 12 193 9.7 19.3 0.00 0.05 0.05 91 1008.8
20260507020003 12 216 14.5 20.9 0.03 0.05 0.05 91 1009.2
20260507014507 11 182 9.7 22.5 0.05 0.05 0.05 92 1009.5
20260507013028 11 215 6.4 14.5 0.05 0.05 0.05 93 1009.4
20260507011518 11 202 4.8 19.3 0.05 0.05 0.05 93 1009.8
20260507010026 11 227 6.4 20.9 0.03 0.03 0.03 92 1010.5
20260507004506 11 194 9.7 24.1 0.00 0.00 0.00 92 1010.8
20260507003009 11 219 8.0 19.3 0.00 0.00 0.00 91 1011.0
20260507001514 11 224 14.5 32.2 0.00 0.00 0.00 89 1011.1
20260507000018 12 200 12.9 27.4 0.00 0.00 0.00 87 1011.1
20260506234524 12 205 16.1 41.8 0.00 0.00 0.00 85 1011.4
20260506233009 12 218 14.5 33.8 0.00 0.00 0.00 85 1011.3
20260506231512 12 211 12.9 30.6 0.00 0.00 0.00 86 1011.2
20260506230015 12 225 9.7 24.1 0.00 0.00 0.00 85 1011.1
20260506224519 13 241 16.1 32.2 0.00 0.00 0.00 84 1011.1
20260506223021 13 223 11.3 33.8 0.00 0.00 0.00 84 1011.1
20260506220012 13 183 9.7 27.4 0.00 0.00 0.00 84 1011.1
20260506214535 13 213 14.5 33.8 0.00 0.00 0.00 84 1011.3
20260506213004 13 192 16.1 32.2 0.00 0.00 0.00 83 1011.4
20260506210008 13 207 17.7 35.4 0.00 0.00 0.00 83 1011.6
20260506204509 13 183 11.3 35.4 0.00 0.00 0.00 82 1011.3
20260506203007 13 206 17.7 33.8 0.00 0.00 0.00 84 1011.4
20260506200008 13 217 14.5 32.2 0.00 0.00 0.00 83 1011.6
20260506194511 13 208 11.3 37.0 0.00 0.00 0.00 83 1011.4
20260506193015 13 162 9.7 35.4 0.00 0.00 0.00 84 1011.5
20260506191512 13 173 11.3 40.2 0.00 0.00 0.00 84 1011.5
20260506190012 13 178 14.5 35.4 0.00 0.00 0.00 84 1011.7
20260506184520 13 191 19.3 35.4 0.00 0.00 0.00 85 1011.7
20260506183022 12 225 14.5 41.8 0.00 0.00 0.00 86 1012.1
20260506181517 12 177 20.9 35.4 0.00 0.00 0.00 86 1012.3
20260506180007 12 210 19.3 40.2 0.00 0.00 0.00 86 1012.5